sat.trackr.live / text

‹ back to catalog

STARLINK-34063

NORAD 64185 · 2025-113R

PAYLOAD ACTIVE UNKNOWN

§ Identity

Operator
Country
US
Launch date
2025-05-28
Launch site
AFETR
Launch vehicle
Mass (kg)
RCS (m²)

Purposes: comms

External: N2YO · Heavens-Above · Gunter

§ Orbital elements

Epoch: 2026-05-25T03:18:59.798304Z

Period
94.01 min
Inclination
53.1585°
Eccentricity
0.0001201
Mean motion
15.31718023 rev/d
Perigee alt
469.9 km
Apogee alt
471.5 km
Semi-major
6,848.8 km
B*
6.8001e-4
RAAN
95.7574°
Arg perigee
69.9536°
Mean anomaly
290.1594°
Rev number
5,677

§ Raw data

STARLINK-340631 64185U 25113R   26145.13819211  .00020807  00000+0  68001-3 0  99942 64185  53.1585  95.7574 0001201  69.9536 290.1594 15.31718023 56778

JSON: /api/v1/satellites/64185 · /tle

For live sub-satellite position, see the globe view (requires WebGL).

§ Visibility from observer

Set your observer location to see the next 7 days of passes ≥ 10°. The values pass through the URL so the page stays shareable.

No JS? Fill the form by hand. The geolocation button needs JavaScript.